Location: Goettingen
(51.5300°N, 9.9433°E)
Time: 00:45:58
(UTC+02:00)

ISS - Pass Details

Date: 25 May 2017
Orbit: 402 x 408 km, 51.6° (Epoch: 30 May)

Event Time Altitude Azimuth Distance (km) Brightness Sun altitude
Rises 01:03:49 0° 266° (W) 2,332 0.0 -17.5°
Reaches altitude 10° 01:05:54 10° 267° (W) 1,470 -1.0 -17.5°
Maximum altitude 01:09:12 87° 359° (N) 413 -3.9 -17.5°
Drops below altitude 10° 01:12:30 10° 86° (E) 1,467 -1.0 -17.5°
Sets 01:14:35 0° 87° (E) 2,327 0.1 -17.5°
